THORAD AGENA D DEB, 4911

Orbit data source: Space-Track

THORAD AGENA D DEB, 4911 is space debris in SSO originally from a launch on Wed, 08 Apr 1970 UTC launched from the Air Force Western Test Range (AFWTR). Debris objects in space refer to the collection of defunct objects orbiting the Earth. Examples of debris include non-operational satellites, rocket bodies, and fragments generated from explosions, collisions, or faulty payload assembly.

Loading next visibility...
Identifier
4911, 1970-025FH
Orbit
SSO
Country
Flag of USUS
Related business
Manufacturer
Unknown
Mission
Spacecraft
Bus & Motor
Unknown
Mass
Unknown
Launch date (UTC)
1970-04-08 (56 years ago)
Launch vehicle
Unknown
Launch site
Air Force Western Test Range (AFWTR)
Object type
Payload
Rocket body
Debris
Shape & HBR
Unknown shape, 0.1 m
Radar Cross Section
Small (<0.1 m²)

Expand to show TLE details & history
Last TLE update: 20 hours ago

TLE from 20 hours ago
0 THORAD AGENA D DEB
1  4911U 70025FH  26124.56611345  .00002077  00000-0  77766-3 0  9997
2  4911  99.9725 358.9689 0061550  79.2922 281.5179 14.32024397865359
Epoch: 2026-05-04T13:35Z
TLE epoch observation values (Epoch: 2026-05-04T13:35:12.202Z)
Latitude
-0.00003°
Longitude
-67.28541°
Altitude
779.316 km
Speed
7.469 km/s
True Right ascension
23h 55m 52s
True Declination
0° 00' 00"
Sunlit
Object was in daylight at epoch
Visualization orbit readout
Latitude
Unknown
Longitude
Unknown
Altitude
Unknown
Speed
Unknown
Apparent Right ascension
Unknown
Apparent Declination
Unknown
Sunlit
N/A
Visualization observer readout
Local Sidereal Time
17:19:20
Azimuth
Unknown
Elevation
Unknown
Doppler factor
Unknown
Orbital elements
Apogee altitude
826.251 km
Perigee altitude
738.108 km
Semi-major axis
7,160.317 km
Eccentricity
0.00616
Inclination
99.9725°
RAAN
358.9689°
Arg. of periapsis
79.2922°
True anomaly
280.82575°
Mean anomaly
281.5179°
Eccentric anomaly
281.17193°
Mean motion
3.58216 °/min
Orbital period
100.5 mins
BSTAR
0.00077766

Documentation

Showing up to 5 results
|